TimeEST,TemperatureF,Dew PointF,Humidity,Sea Level PressureIn,VisibilityMPH,Wind Direction,Wind SpeedMPH,Gust SpeedMPH,PrecipitationIn,Events,Conditions,WindDirDegrees,DateUTC
12:53 AM,41.0,30.9,67,30.15,10.0,SW,6.9,-,N/A,,Clear,220,2013-01-24 05:53:00
1:53 AM,41.0,32.0,70,30.14,9.0,SW,5.8,-,N/A,,Clear,220,2013-01-24 06:53:00
2:53 AM,41.0,34.0,76,30.12,8.0,SW,5.8,-,N/A,,Partly Cloudy,230,2013-01-24 07:53:00
3:53 AM,45.0,37.0,74,30.10,8.0,WSW,8.1,-,N/A,,Clear,240,2013-01-24 08:53:00
4:53 AM,46.0,37.9,73,30.09,9.0,WSW,10.4,-,N/A,,Mostly Cloudy,250,2013-01-24 09:53:00
5:53 AM,48.9,39.0,69,30.09,9.0,WSW,12.7,-,N/A,,Clear,250,2013-01-24 10:53:00
6:53 AM,48.9,39.9,71,30.10,9.0,WSW,11.5,-,N/A,,Clear,250,2013-01-24 11:53:00
7:53 AM,48.9,41.0,74,30.12,8.0,West,11.5,-,N/A,,Clear,260,2013-01-24 12:53:00
8:53 AM,52.0,42.1,69,30.14,9.0,West,16.1,-,N/A,,Clear,270,2013-01-24 13:53:00
9:53 AM,55.9,41.0,57,30.16,10.0,West,15.0,21.9,N/A,,Clear,270,2013-01-24 14:53:00
10:53 AM,60.1,39.9,47,30.17,10.0,West,17.3,-,N/A,,Clear,280,2013-01-24 15:53:00
11:53 AM,63.0,36.0,37,30.15,10.0,WNW,11.5,19.6,N/A,,Clear,290,2013-01-24 16:53:00
12:53 PM,64.0,32.0,30,30.15,10.0,WNW,12.7,20.7,N/A,,Clear,290,2013-01-24 17:53:00
1:53 PM,64.9,28.0,25,30.15,10.0,WNW,13.8,20.7,N/A,,Clear,300,2013-01-24 18:53:00
2:53 PM,64.0,28.0,26,30.18,10.0,NNW,10.4,21.9,N/A,,Clear,330,2013-01-24 19:53:00
3:53 PM,61.0,34.0,36,30.19,10.0,NE,10.4,-,N/A,,Clear,40,2013-01-24 20:53:00
4:53 PM,53.1,28.0,38,30.26,10.0,ENE,15.0,21.9,N/A,,Clear,60,2013-01-24 21:53:00
5:53 PM,50.0,24.1,36,30.30,10.0,ENE,9.2,-,N/A,,Clear,60,2013-01-24 22:53:00
6:53 PM,46.9,19.9,34,30.35,10.0,NE,10.4,17.3,N/A,,Clear,50,2013-01-24 23:53:00
7:53 PM,42.1,14.0,32,30.39,10.0,ENE,15.0,21.9,N/A,,Clear,60,2013-01-25 00:53:00
8:53 PM,39.0,10.0,30,30.43,10.0,ENE,10.4,23.0,N/A,,Clear,70,2013-01-25 01:53:00
9:53 PM,37.0,10.9,34,30.45,10.0,ENE,9.2,17.3,N/A,,Clear,60,2013-01-25 02:53:00
10:53 PM,35.1,10.0,35,30.48,10.0,ENE,6.9,-,N/A,,Clear,70,2013-01-25 03:53:00
11:53 PM,33.1,8.1,35,30.46,10.0,ENE,8.1,-,N/A,,Clear,60,2013-01-25 04:53:00